Retour au catalogue

DELTA 1 DEB

ActifSSO
NORAD 10658·DEBRIS·🇺🇸 United States

Lancé Jul 29, 1976 depuis Vandenberg Space Force Base

Loading…

Prochains Passages (prochaines 24 heures)

TLE

FraisSource: Space-Track

Époque: Sep 14, 2026, 05:52 UTC

1 10658U 76077U   26257.24492029 -.00000048  00000-0 -14266-4 0  9998
2 10658 102.4985 245.0926 0056486 211.5568 220.1873 12.29960428250874

Suivez DELTA 1 DEB en temps réel avec AllMySat

Download on the App Store